469  
NZUS01 KABQ 210610  
RWRABQ  
NEW MEXICO REGIONAL WEATHER ROUNDUP  
NATIONAL WEATHER SERVICE ALBUQUERQUE NM  
1200 AM MDT FRI JUL 21 2017  
 
-----NORTHERN NEW MEXICO AND NEARBY AREAS-----  
 
 
CITY SKY/WX TMP DP RH WIND PRES REMARKS
 
ALBUQUERQUE FAIR 74 54 49 SE8 30.23R  
6HR MIN TEMP: 74; 6HR MAX TEMP: 85; 6HR PCP: TRACE;  
 
BELEN FAIR 74 51 43 S8 30.23R  
6HR MIN TEMP: 74; 6HR MAX TEMP: 88;  
 
SOCORRO FAIR 74 54 49 S7G17 30.21R  
6HR MIN TEMP: 73; 6HR MAX TEMP: 87;  
 
 
CITY SKY/WX TMP DP RH WIND PRES REMARKS
 
SANTA FE CLOUDY 70 51 51 E5 30.29R  
6HR MIN TEMP: 70; 6HR MAX TEMP: 87;  
 
LOS ALAMOS PTCLDY 69 47 45 SW10 30.35S  
6HR MIN TEMP: 69; 6HR MAX TEMP: 79;  
 
TAOS CLOUDY 68 45 42 SE7 30.35S  
6HR MIN TEMP: 68; 6HR MAX TEMP: 84;  
 
ANGEL FIRE FAIR 56 48 72 CALM 30.44S  
6HR MIN TEMP: 56; 6HR MAX TEMP: 79;  
 
FARMINGTON PTCLDY 69 60 73 N6 30.19S  
6HR MIN TEMP: 69; 6HR MAX TEMP: 91; 6HR PCP: 0.02;  
 
GRANTS CLOUDY 68 53 57 SE5 30.31S  
6HR MIN TEMP: 67; 6HR MAX TEMP: 76;  
 
GALLUP CLOUDY 64 56 75 W7 30.28F  
6HR MIN TEMP: 64; 6HR MAX TEMP: 73;  
 
FLAGSTAFF CLOUDY 57 54 89 CALM 30.32F  
6HR MIN TEMP: 57; 6HR MAX TEMP: 67;  
 
DURANGO CLOUDY 62 52 69 SW6 30.29S  
6HR MIN TEMP: 61; 6HR MAX TEMP: 84; 6HR PCP: 0.02;  
 
 
CITY SKY/WX TMP DP RH WIND PRES REMARKS
 
ALAMOSA CLOUDY 63 50 62 E5 30.34R  
6HR MIN TEMP: 63; 6HR MAX TEMP: 81; 6HR PCP: TRACE;  
 
DENVER CLOUDY 74 51 44 SW15 30.11F  
6HR MIN TEMP: 74; 6HR MAX TEMP: 82; 6HR PCP: TRACE;  
 
CLAYTON CLEAR 69 47 45 S10 30.14F  
6HR MIN TEMP: 69; 6HR MAX TEMP: 93;  
 
RATON CLEAR 69 46 43 SW7 30.23F  
6HR MIN TEMP: 69; 6HR MAX TEMP: 91;  
 
LAS VEGAS CLEAR 63 48 58 S9 30.32S  
6HR MIN TEMP: 63; 6HR MAX TEMP: 85;  
 
CLINES CORNERS CLEAR 61 49 64 SW10 30.35S  
6HR MIN TEMP: 60; 6HR MAX TEMP: 75;  
 
SANTA ROSA FAIR 77 50 38 S9 30.16S  
6HR MIN TEMP: 77; 6HR MAX TEMP: 92;  
 
TUCUMCARI CLEAR 76 51 41 S7 30.09S  
6HR MIN TEMP: 76; 6HR MAX TEMP: 98;  
 
CLOVIS (AFB) CLEAR 74 53 46 S3 30.17R  
6HR MIN TEMP: 74; 6HR MAX TEMP: 94;  
 
CLOVIS CLEAR 75 53 46 S10 30.16S  
6HR MIN TEMP: 75; 6HR MAX TEMP: 94;  
 
AMARILLO CLEAR 78 54 43 S13 30.09F  
6HR MIN TEMP: 78; 6HR MAX TEMP: 94;  
 
-----SOUTHERN NEW MEXICO AND NEARBY AREAS-----  
 
 
CITY SKY/WX TMP DP RH WIND PRES REMARKS
 
T OR C CLOUDY 67 59 75 N6 30.22S  
6HR MIN TEMP: 67; 6HR MAX TEMP: 86; 6HR PCP: 0.08;  
 
DEMING CLOUDY 68 67 96 NW5 30.18F  
6HR MIN TEMP: 68; 6HR MAX TEMP: 87; 6HR PCP: 0.43;  
 
TUCSON MOCLDY 76 68 76 SE8 30.06F  
6HR MIN TEMP: 75; 6HR MAX TEMP: 92; 6HR PCP: 0.30;  
 
EL PASO CLOUDY 79 57 46 W6 30.13F  
6HR MIN TEMP: 77; 6HR MAX TEMP: 89; 6HR PCP: TRACE;  
 
LAS CRUCES CLOUDY 69 64 85 NW6 30.19F  
6HR MIN TEMP: 69; 6HR MAX TEMP: 88; 6HR PCP: 0.10;  
 
 
CITY SKY/WX TMP DP RH WIND PRES REMARKS
 
ALAMOGORDO PTCLDY 75 62 62 SE6 30.17F  
6HR MIN TEMP: 75; 6HR MAX TEMP: 82; 6HR PCP: TRACE;  
 
RUIDOSO CLOUDY 64 52 63 SW8 30.36S  
ROSWELL MOCLDY 79 53 40 S9 30.10S  
6HR MIN TEMP: 78; 6HR MAX TEMP: 95;  
 
CARLSBAD CLEAR 80 56 43 S8 30.08S  
6HR MIN TEMP: 80; 6HR MAX TEMP: 94;  
 
HOBBS CLEAR 75 54 46 S6 30.15S  
 
CLICK HERE TO GO TO PREVIOUS BULLETINS.

The Nexlab NM Page Main Text Page